Skip Page Navigation
NASA JPL Caltech
NASA Logo - Jet Propulsion Laboratory + View the NASA Portal
+ Center for Near-Earth Object Studies
JPL Home Earth Solar System Stars & Galaxies Technology
JPL Solar System Dynamics
BODIES ORBITS EPHEMERIDES TOOLS PHYSICAL DATA DISCOVERY FAQ SITE MAP
IMPORTANT: The SSD Announcement email list is now available. Major changes are coming in the near future, including possible hostname and/or URL changes. To be notified of such changes, subscribe to this email list.

Please visit this page for more details.


JPL Small-Body Database Browser
Search: [ help ]  
100356 (1995 TC7)
Classification: Main-belt Asteroid          SPK-ID: 2100356
Ephemeris | Orbit Diagram | Orbital Elements | Mission Design | Physical Parameters | Discovery Circumstances ]

[ show orbit diagram ]
Orbital Elements at Epoch 2459000.5 (2020-May-31.0) TDB
Reference: JPL 10 (heliocentric ecliptic J2000)
 Element Value Uncertainty (1-sigma)   Units 
e .2177712550416754 5.5002e-08  
a 2.403570941814623 8.7303e-09 au
q 1.880142281233951 1.352e-07 au
i 2.256040806169821 5.5293e-06 deg
node 349.3224417580433 0.00010707 deg
peri 333.0018601410635 0.00010759 deg
M 265.8766781171234 9.1994e-06 deg
tp 2459356.359520946414
(2021-May-21.85952095)
3.5304e-05 TDB
period 1361.080601257607
3.73
7.4156e-06
2.03e-08
d
yr
n .2644957246965157 1.4411e-09 deg/d
Q 2.926999602395296 1.0631e-08 au
  Orbit Determination Parameters
   # obs. used (total)      388  
   data-arc span      10015 days (27.42 yr)  
   first obs. used      1991-09-04  
   last obs. used      2019-02-04  
   planetary ephem.      DE431  
   SB-pert. ephem.      SB431-N16  
   condition code      0  
   norm. resid. RMS      .60837  
   source      ORB  
   producer      Otto Matic  
   solution date      2019-Jul-13 14:39:13  

Additional Information
 Earth MOID = .868051 au 
 Jupiter MOID = 2.40011 au 
 T_jup = 3.490 
[ show covariance matrix ]

Ephemeris | Orbit Diagram | Orbital Elements | Mission Design | Physical Parameters | Discovery Circumstances ]

Physical Parameter Table
Parameter Symbol Value Units Sigma Reference Notes
absolute magnitude H 16.8   n/a MPO264055  

100356 (1995 TC7)          Discovered 1995-Oct-15 by Spacewatch at Kitt Peak
Reference: 20051019/Numbers.arcLast Updated: 2005-10-26

Alternate Designations
 1995 TC7 = 2005 EB183 
Ephemeris | Orbit Diagram | Orbital Elements | Mission Design | Physical Parameters | Discovery Circumstances ]
ABOUT SSD CREDITS/AWARDS PRIVACY/COPYRIGHT GLOSSARY LINKS
FirstGov 2020-Apr-05 20:51 UT
(server date/time)  
NASA Home Page
Site Manager:   Ryan S. Park
Webmaster  Alan B. Chamberlin